FW7738 Weather Reports


time (UTC)temp
C
wind
direction
speed
KPH
gust
KPH
rain 1hr
cm
rain 24hr
cm
rain mn
cm
humidity
%
barometer
mb
20260902060028 22 317 3.2 6.4 0.00 0.00 0.00 80 1017.4
20260902055024 22 285 1.6 4.8 0.00 0.00 0.00 81 1017.4
20260902054019 22 280 1.6 4.8 0.00 0.00 0.00 81 1017.2
20260902053035 22 293 1.6 4.8 0.00 0.00 0.00 81 1017.1
20260902052029 22 293 3.2 11.3 0.00 0.00 0.00 81 1017.0
20260902051024 22 301 1.6 4.8 0.00 0.00 0.00 81 1017.1
20260902050020 22 274 3.2 6.4 0.00 0.00 0.00 81 1017.0
20260902045055 22 303 1.6 3.2 0.00 0.00 0.00 82 1017.1
20260902044030 23 319 4.8 6.4 0.00 0.00 0.00 81 1017.0
20260902043045 23 308 3.2 6.4 0.00 0.00 0.00 81 1016.8
20260902042020 23 316 3.2 6.4 0.00 0.00 0.00 81 1016.8
20260902041015 23 325 3.2 4.8 0.00 0.00 0.00 81 1017.1
20260902040052 23 316 0.0 1.6 0.00 0.00 0.00 81 1017.1
20260902035026 23 314 0.0 1.6 0.00 0.00 0.00 81 1017.2
20260902034021 23 2 0.0 3.2 0.00 0.00 0.00 81 1017.2
20260902033017 23 321 1.6 4.8 0.00 0.00 0.00 80 1017.3
20260902032032 23 296 3.2 6.4 0.00 0.00 0.00 80 1017.2
20260902031028 23 313 3.2 4.8 0.00 0.00 0.00 80 1017.3
20260902030023 23 302 3.2 4.8 0.00 0.00 0.00 81 1017.2
20260902025018 23 323 0.0 4.8 0.00 0.00 0.00 82 1017.2
20260902024034 23 329 0.0 3.2 0.00 0.00 0.00 83 1017.3
20260902023029 23 335 0.0 3.2 0.00 0.00 0.00 84 1017.2
20260902022024 23 349 1.6 3.2 0.00 0.00 0.00 84 1017.3
20260902021019 23 0.0 0.0 0.00 0.00 0.00 85 1017.2
20260902020054 23 0.0 0.0 0.00 0.00 0.00 84 1017.3
20260902015050 23 0.0 0.0 0.00 0.00 0.00 84 1017.4
20260902014026 23 335 0.0 1.6 0.00 0.00 0.00 84 1017.4
20260902013020 23 303 1.6 3.2 0.00 0.00 0.00 84 1017.6
20260902012016 23 300 1.6 1.6 0.00 0.00 0.00 85 1017.5
20260902011051 23 301 3.2 4.8 0.00 0.00 0.00 86 1017.6
20260902010026 23 307 1.6 4.8 0.00 0.00 0.00 86 1017.6
20260902005021 23 324 0.0 1.6 0.00 0.00 0.00 87 1017.6
20260902004016 23 319 1.6 3.2 0.00 0.00 0.00 87 1017.7
20260902003031 23 318 1.6 3.2 0.00 0.00 0.00 87 1017.8
20260902002107 24 0.0 0.0 0.00 0.00 0.00 87 1017.8
20260902001022 24 334 0.0 1.6 0.00 0.00 0.00 87 1017.8
20260902000017 24 0.0 0.0 0.00 0.00 0.00 87 1017.8
20260901235033 23 0 1.6 1.6 0.00 0.00 0.00 87 1017.7
20260901234028 23 356 0.0 1.6 0.00 0.00 0.00 87 1017.7
20260901233023 23 353 1.6 3.2 0.00 0.00 0.00 87 1017.7
20260901232019 -17 0.0 0.0 0.00 0.00 0.00 1017.6
20260901231034 -17 0.0 0.0 0.00 0.00 0.00 1017.7
20260901230029 24 354 0.0 1.6 0.00 0.00 0.00 88 1017.5
20260901225044 24 359 0.0 1.6 0.00 0.00 0.00 88 1017.7
20260901224019 24 350 1.6 3.2 0.00 0.00 0.00 87 1017.7
20260901223035 24 344 1.6 4.8 0.00 0.00 0.00 87 1017.7
20260901222031 24 352 1.6 1.6 0.00 0.00 0.00 87 1017.7
20260901221026 24 348 1.6 1.6 0.00 0.00 0.00 87 1017.7
20260901220022 25 355 0.0 1.6 0.00 0.00 0.00 86 1017.7
20260901215017 25 340 1.6 3.2 0.00 0.00 0.00 86 1017.6
20260901214032 25 348 0.0 1.6 0.00 0.00 0.00 86 1017.7
20260901213027 25 0.0 0.0 0.00 0.00 0.00 87 1017.7
20260901212043 25 1 0.0 1.6 0.00 0.00 0.00 87 1017.6
20260901211017 25 29 0.0 1.6 0.00 0.00 0.00 86 1017.6
20260901210113 25 32 0.0 1.6 0.00 0.00 0.00 86 1017.6
20260901205028 25 0.0 0.0 0.00 0.00 0.00 86 1017.5
20260901204024 25 0.0 0.0 0.00 0.00 0.00 86 1017.5
20260901203019 25 0.0 0.0 0.00 0.00 0.00 85 1017.5
20260901202035 25 0.0 0.0 0.00 0.00 0.00 85 1017.2
20260901201030 25 49 0.0 1.6 0.00 0.00 0.00 85 1017.1
20260901200025 25 49 0.0 1.6 0.00 0.00 0.00 85 1017.0
20260901195101 25 0.0 0.0 0.00 0.00 0.00 85 1017.0
20260901194036 25 0.0 0.0 0.00 0.00 0.00 84 1016.9
20260901193031 25 0.0 0.0 0.00 0.00 0.00 84 1016.6
20260901192026 25 75 1.6 1.6 0.00 0.00 0.00 84 1016.4
20260901191022 25 78 1.6 3.2 0.00 0.00 0.00 83 1016.2
20260901190017 25 91 0.0 3.2 0.00 0.00 0.00 83 1016.3
20260901185032 25 88 1.6 4.8 0.00 0.00 0.00 82 1016.1
20260901184027 26 121 4.8 9.7 0.00 0.00 0.00 81 1016.0
20260901183022 26 106 4.8 9.7 0.00 0.00 0.00 81 1015.9
20260901182018 26 104 3.2 6.4 0.00 0.00 0.00 81 1016.0
20260901181033 26 120 4.8 11.3 0.00 0.00 0.00 80 1015.8
20260901180029 26 126 8.0 12.9 0.00 0.00 0.00 80 1015.9
20260901175024 26 137 4.8 11.3 0.00 0.00 0.00 80 1015.9
20260901174039 26 102 4.8 11.3 0.00 0.00 0.00 79 1015.8
20260901173034 26 113 8.0 12.9 0.00 0.00 0.00 78 1015.9
20260901172030 26 115 6.4 14.5 0.00 0.00 0.00 77 1015.9
20260901171045 26 130 6.4 11.3 0.00 0.00 0.00 75 1015.9
20260901170021 27 117 11.3 14.5 0.00 0.00 0.00 74 1015.9
20260901165016 27 103 6.4 11.3 0.00 0.00 0.00 72 1015.9
20260901164031 27 111 6.4 14.5 0.00 0.00 0.00 73 1016.1
20260901163046 27 110 4.8 11.3 0.00 0.00 0.00 70 1015.9
20260901162022 27 112 8.0 16.1 0.00 0.00 0.00 71 1016.1
20260901161017 27 87 3.2 11.3 0.00 0.00 0.00 74 1016.1
20260901160113 27 128 4.8 12.9 0.00 0.00 0.00 73 1016.3
20260901155028 27 97 3.2 9.7 0.00 0.00 0.00 76 1016.2
20260901154044 26 80 3.2 11.3 0.00 0.00 0.00 75 1016.2
20260901153018 26 91 4.8 9.7 0.00 0.00 0.00 76 1016.5
20260901152034 26 84 4.8 9.7 0.00 0.00 0.00 76 1016.8
20260901151030 26 124 1.6 4.8 0.00 0.00 0.00 73 1017.1
20260901150024 27 261 3.2 11.3 0.00 0.00 0.00 74 1017.4
20260901145020 27 114 11.3 20.9 0.00 0.00 0.00 72 1016.2
20260901144015 27 110 11.3 20.9 0.00 0.00 0.00 68 1016.4
20260901143031 27 98 4.8 12.9 0.00 0.00 0.00 67 1016.5
20260901142026 28 135 6.4 16.1 0.00 0.00 0.00 65 1016.9
20260901141021 28 101 3.2 6.4 0.00 0.00 0.00 63 1017.4
20260901140038 28 104 6.4 12.9 0.00 0.00 0.00 65 1017.2
20260901135032 28 208 3.2 6.4 0.00 0.00 0.00 65 1017.9
20260901134047 28 122 4.8 14.5 0.00 0.00 0.00 68 1017.7
20260901133022 28 137 6.4 11.3 0.00 0.00 0.00 69 1018.0
20260901132017 27 139 6.4 11.3 0.00 0.00 0.00 70 1017.9
20260901131032 27 153 3.2 9.7 0.00 0.00 0.00 72 1017.8
20260901130028 27 123 6.4 12.9 0.00 0.00 0.00 73 1017.7
20260901125023 27 142 9.7 16.1 0.00 0.00 0.00 73 1017.9
20260901124018 27 162 9.7 17.7 0.00 0.00 0.00 72 1017.9
20260901123034 27 128 12.9 24.1 0.00 0.00 0.00 73 1017.8
20260901122049 27 119 17.7 25.7 0.00 0.00 0.00 74 1016.9
20260901121044 27 117 12.9 24.1 0.00 0.00 0.00 73 1017.2
20260901120019 27 129 12.9 17.7 0.00 0.00 0.00 72 1017.8
20260901115035 27 121 9.7 14.5 0.00 0.00 0.00 68 1018.0
20260901114030 28 111 8.0 16.1 0.00 0.00 0.00 68 1018.0
20260901113025 28 107 9.7 16.1 0.00 0.00 0.00 69 1018.1
20260901112020 27 127 9.7 14.5 0.00 0.00 0.00 70 1018.4
20260901111015 27 120 9.7 14.5 0.00 0.00 0.00 73 1018.6
20260901110031 27 130 9.7 14.5 0.00 0.00 0.00 73 1018.6
20260901105026 27 105 6.4 16.1 0.00 0.00 0.00 72 1018.7
20260901104101 27 131 8.0 20.9 0.00 0.00 0.00 71 1018.2
20260901103017 27 132 9.7 22.5 0.00 0.00 0.00 70 1018.5
20260901102032 27 117 8.0 16.1 0.00 0.00 0.00 73 1018.8
20260901101047 27 122 8.0 16.1 0.00 0.00 0.00 73 1018.8
20260901100043 27 119 6.4 14.5 0.00 0.00 0.00 73 1018.8
20260901095018 27 136 6.4 12.9 0.00 0.00 0.00 74 1018.9
20260901094034 26 143 6.4 14.5 0.00 0.00 0.00 74 1018.8
20260901093049 26 126 8.0 16.1 0.00 0.00 0.00 74 1019.0
20260901092045 26 108 8.0 16.1 0.00 0.00 0.00 75 1018.7
20260901091020 26 95 6.4 14.5 0.00 0.00 0.00 77 1018.6
20260901090035 26 96 6.4 14.5 0.00 0.00 0.00 76 1018.7
20260901085030 26 135 4.8 11.3 0.00 0.00 0.00 76 1018.9
20260901084026 26 93 8.0 14.5 0.00 0.00 0.00 76 1018.4
20260901083021 26 93 4.8 14.5 0.00 0.00 0.00 77 1018.5
20260901082036 26 98 6.4 14.5 0.00 0.00 0.00 76 1018.3
20260901081032 26 87 3.2 12.9 0.00 0.00 0.00 77 1018.2
20260901080026 26 87 4.8 11.3 0.00 0.00 0.00 76 1018.2
20260901075022 26 92 4.8 9.7 0.00 0.00 0.00 75 1018.2
20260901074017 26 89 4.8 14.5 0.00 0.00 0.00 75 1018.2
20260901073033 25 74 3.2 6.4 0.00 0.00 0.00 75 1018.0
20260901072028 25 69 0.0 4.8 0.00 0.00 0.00 76 1017.9
20260901071023 25 42 0.0 3.2 0.00 0.00 0.00 77 1017.7
20260901070058 25 0.0 0.0 0.00 0.00 0.00 77 1017.8
20260901065034 25 32 0.0 1.6 0.00 0.00 0.00 78 1017.7
20260901064029 25 30 1.6 4.8 0.00 0.00 0.00 78 1017.3
20260901063025 25 40 1.6 3.2 0.00 0.00 0.00 79 1017.2
20260901062020 24 345 1.6 3.2 0.00 0.00 0.00 80 1017.4
20260901061015 24 7 3.2 4.8 0.00 0.00 0.00 80 1017.2